Station KNSW3 - Kenosha Light, Kenosha, WI Image indicating link to RSS feed of recent meteorological observations for station KNSW3


Conditions at KNSW3 as of
(10:00 am CDT)
1500 GMT on 05/29/2024:
     

Click on the graph icon in the table below to see a time series plot of the last five days of that observation.

5-day plot - Wind Direction Wind Direction (WDIR): N ( 10 deg true )
5-day plot - Wind Speed Wind Speed (WSPD): 9 kts
5-day plot - Wind Gust Wind Gust (GST): 10 kts
5-day plot - Atmospheric Pressure Atmospheric Pressure (PRES):30.18 in
5-day plot - Pressure Tendency Pressure Tendency (PTDY):+0.05 in ( Rising )
5-day plot - Air Temperature Air Temperature (ATMP): 55.2 °F
5-day plot - Wind Speed at 10 Meters Wind Speed at 10 meters (WSPD10M): 8 kts
5-day plot - Wind Speed at 20 Meters Wind Speed at 20 meters (WSPD20M): 10 kts
5-day plot -  Wind Speed, Wind Gust and Atmospheric Pressure Combined plot of Wind Speed, Gust, and Air Pressure
Previous observations
TIME
(CDT)
5-day plot - Wind Direction
WDIR
 
5-day plot - Wind Speed
WSPD
kts
5-day plot - Wind Gust
GST
kts
5-day plot - Wave Height
WVHT
ft
5-day plot - Dominant Wave Period
DPD
sec
5-day plot - Average Wave Period
APD
sec
5-day plot - Mean Wave Direction
MWD
 
5-day plot - Atmospheric Pressure
PRES
in
5-day plot - Pressure Tendency
PTDY
in
5-day plot - Air Temperature
ATMP
°F
5-day plot - Water Temperature
WTMP
°F
5-day plot - Dew Point
DEWP
°F
5-day plot - Salinity
SAL
psu
5-day plot - Visibility
VIS
nmi
5-day plot - Tide (above MLLW)
TIDE
ft
2024-05-29 09:50 am N 8 9----30.18- 55.2-----
2024-05-29 09:40 am N 7 9----30.18- 55.2-----
2024-05-29 09:30 am N 9 9----30.18- 55.8-----
2024-05-29 09:20 am N 9 10----30.18- 55.8-----
2024-05-29 09:10 am N 9 11----30.18- 55.9-----
2024-05-29 09:00 am N 8 10----30.17+0.06 55.6-----
2024-05-29 08:50 am N 9 10----30.17- 56.5-----
2024-05-29 08:40 am N 8 9----30.17- 56.5-----
2024-05-29 08:30 amNNW 6 8----30.17- 55.9-----
2024-05-29 08:20 amNNW 7 8----30.17- 55.9-----
2024-05-29 08:10 am N 7 9----30.16- 55.8-----
2024-05-29 08:00 amNNW 7 8----30.15+0.06 55.8-----
2024-05-29 07:50 amNNW 7 8----30.15- 55.9-----
2024-05-29 07:40 amNNW 6 7----30.15- 55.6-----
2024-05-29 07:30 amNNW 5 6----30.14- 55.4-----
2024-05-29 07:20 am NW 5 7----30.14- 55.4-----
2024-05-29 07:10 am NW 4 7----30.14- 55.2-----
2024-05-29 07:00 am NW 5 6----30.13+0.05 55.2-----
2024-05-29 06:50 am NW 5 6----30.12- 55.0-----
2024-05-29 06:40 am NW 4 6----30.12- 55.0-----
2024-05-29 06:30 am NW 4 6----30.12- 55.2-----
2024-05-29 06:20 am NW 5 7----30.12- 55.4-----
2024-05-29 06:10 amNNW 5 6----30.11- 55.0-----
2024-05-29 06:00 am NW 5 5----30.11+0.04 54.9-----
2024-05-29 05:50 amWNW 4 6----30.11- 54.7-----
2024-05-29 05:40 am NW 5 6----30.10- 55.0-----
2024-05-29 05:30 am NW 5 6----30.10- 55.2-----
2024-05-29 05:20 am NW 5 6----30.10- 55.2-----
2024-05-29 05:10 am NW 5 6----30.09- 55.2-----
2024-05-29 05:00 am NW 4 6----30.09+0.02 55.0-----
2024-05-29 04:50 am NW 4 5----30.09- 55.0-----
2024-05-29 04:40 am NW 4 6----30.09- 54.9-----
2024-05-29 04:30 am NW 4 5----30.09- 54.9-----
2024-05-29 04:20 am NW 4 7----30.09- 55.0-----
2024-05-29 04:10 am NW 5 6----30.08- 55.0-----
2024-05-29 04:00 am NW 5 6----30.08+0.02 55.0-----
2024-05-29 03:50 am NW 4 6----30.08- 54.9-----
2024-05-29 03:40 am NW 5 6----30.08- 54.9-----
2024-05-29 03:30 am NW 5 6----30.08- 55.0-----
2024-05-29 03:20 am NW 5 6----30.08- 54.9-----
2024-05-29 03:10 am NW 5 7----30.08- 54.9-----
2024-05-29 03:00 am NW 5 7----30.07+0.03 54.9-----
2024-05-29 02:50 am NW 6 8----30.07- 54.9-----
2024-05-29 02:40 amNNW 7 9----30.07- 54.9-----
2024-05-29 02:30 amNNW 7 9----30.07- 55.0-----
2024-05-29 02:20 amNNW 8 10----30.07- 55.0-----
2024-05-29 02:10 amNNW 8 10----30.07- 54.9-----
2024-05-29 02:00 amNNW 8 9----30.07+0.03 54.9-----
2024-05-29 01:50 amNNW 8 9----30.06- 54.9-----
2024-05-29 01:40 amNNW 8 10----30.06- 54.9-----
2024-05-29 01:30 amNNW 9 11----30.06- 55.0-----
2024-05-29 01:20 amNNW 9 11----30.06- 55.0-----
2024-05-29 01:10 amNNW 8 10----30.06- 54.9-----
2024-05-29 01:00 amNNW 8 11----30.06+0.03 55.2-----
2024-05-29 12:50 amNNW 9 11----30.06- 55.2-----
2024-05-29 12:40 am NW 8 10----30.06- 55.2-----
2024-05-29 12:30 amNNW 7 10----30.06- 55.4-----
2024-05-29 12:20 amNNW 7 10----30.05- 55.2-----
2024-05-29 12:10 amNNW 8 12----30.05- 55.0-----
2024-05-29 12:00 amNNW 9 10----30.04+0.04 55.0-----
2024-05-28 11:50 pm NW 8 10----30.05- 54.7-----
2024-05-28 11:40 pm NW 8 11----30.04- 54.7-----
2024-05-28 11:30 pm NW 8 11----30.04- 54.5-----
2024-05-28 11:20 pm NW 8 10----30.04- 54.5-----
2024-05-28 11:10 pm NW 8 11----30.04- 54.5-----
2024-05-28 11:00 pmNNW 8 11----30.04+0.05 54.9-----
2024-05-28 10:50 pmNNW 8 12----30.04- 54.9-----
2024-05-28 10:40 pm NW 7 9----30.04- 54.5-----
2024-05-28 10:30 pm NW 6 8----30.03- 54.5-----
2024-05-28 10:20 pmNNW 7 8----30.03- 54.3-----
2024-05-28 10:10 pmNNW 5 7----30.03- 54.3-----
2024-05-28 10:00 pmNNW 6 7----30.03+0.05 54.1-----
2024-05-28 09:50 pmNNW 7 8----30.02- 54.0-----
2024-05-28 09:40 pmNNW 7 9----30.02- 54.1-----
2024-05-28 09:30 pm N 8 10----30.02- 54.0-----
2024-05-28 09:20 pmNNW 9 11----30.01- 54.1-----
2024-05-28 09:10 pmNNW 8 10----30.01- 54.0-----
2024-05-28 09:00 pm N 10 12----30.00+0.02 54.3-----
2024-05-28 08:50 pm N 9 10----30.00- 54.7-----
2024-05-28 08:40 pmNNW 7 9----30.00- 55.0-----
2024-05-28 08:30 pmNNW 7 9----29.99- 55.2-----
2024-05-28 08:20 pm N 6 7----29.99- 54.9-----
2024-05-28 08:10 pmNNW 5 6----29.99- 54.7-----
2024-05-28 08:00 pmNNW 4 5----29.99+0.04 55.0-----
2024-05-28 07:50 pmNNW 5 6----29.99- 55.0-----
2024-05-28 07:40 pm N 5 5----29.99- 55.4-----
2024-05-28 07:30 pm NW 3 4----29.99- 56.1-----
2024-05-28 07:20 pmWNW 2 3----29.99- 56.3-----
2024-05-28 07:10 pm W 2 3----29.98- 56.5-----
2024-05-28 07:00 pm W 2 3----29.98+0.03 56.1-----
2024-05-28 06:50 pmWNW 2 4----29.98- 56.1-----
2024-05-28 06:40 pm W 2 3----29.98- 56.3-----
2024-05-28 06:30 pmWSW 2 5----29.99- 56.3-----
2024-05-28 06:20 pmNNW 4 6----29.98- 56.1-----
2024-05-28 06:10 pmWNW 3 5----29.98- 56.8-----
2024-05-28 06:00 pm W 4 7----29.98+0.04 57.2-----
2024-05-28 05:50 pm W 4 8----29.98- 57.6-----
2024-05-28 05:40 pmSSW 5 8----29.97- 57.9-----
2024-05-28 05:30 pm NW 2 4----29.96- 57.2-----
2024-05-28 05:20 pm- 0 5----29.95- 57.2-----
2024-05-28 05:10 pm S 4 6----29.96- 57.7-----
2024-05-28 05:00 pmESE 4 7----29.95+0.00 57.9-----
2024-05-28 04:50 pm E 7 8----29.93- 57.9-----
2024-05-28 04:40 pmENE 4 5----29.95- 57.9-----
2024-05-28 04:30 pmENE 5 7----29.95- 59.0-----
2024-05-28 04:20 pmESE 4 5----29.94- 61.0-----
2024-05-28 04:10 pmESE 5 6----29.94- 60.8-----
2024-05-28 04:00 pm SE 5 8----29.95+0.01 59.9-----
2024-05-28 03:50 pm SE 7 9----29.95- 59.9-----
2024-05-28 03:40 pm SE 7 9----29.95- 59.0-----
2024-05-28 03:30 pm SE 7 9----29.95- 59.2-----
2024-05-28 03:20 pm SE 6 9----29.95- 59.2-----
2024-05-28 03:10 pmSSE 8 11----29.94- 60.1-----
2024-05-28 03:00 pm SE 9 10----29.94+0.01 59.2-----
2024-05-28 02:50 pmNNW 1 11----29.95- 60.8-----
2024-05-28 02:40 pm S 5 10----29.95- 59.2-----
2024-05-28 02:30 pmSSE 9 10----29.94- 58.6-----
2024-05-28 02:20 pmSSE 8 9----29.95- 57.7-----
2024-05-28 02:10 pmSSE 6 7----29.95- 57.7-----
2024-05-28 02:00 pmSSE 6 8----29.95+0.01 59.4-----
2024-05-28 01:50 pmSSE 6 8----29.95- 59.4-----
2024-05-28 01:40 pmSSE 7 8----29.94- 58.6-----
2024-05-28 01:30 pmSSE 5 8----29.95- 59.2-----
2024-05-28 01:20 pmSSE 6 8----29.95- 58.5-----
2024-05-28 01:10 pmSSE 7 8----29.94- 57.9-----
2024-05-28 01:00 pmSSE 5 8----29.94+0.00 58.3-----
2024-05-28 12:50 pmSSE 6 8----29.94- 59.0-----
2024-05-28 12:40 pmSSE 6 8----29.94- 58.5-----
2024-05-28 12:30 pmSSE 6 7----29.94- 58.6-----
2024-05-28 12:20 pmSSE 4 6----29.94- 59.0-----
2024-05-28 12:10 pmSSE 4 5----29.93- 59.7-----
2024-05-28 12:00 pmSSE 3 5----29.93-0.01 59.4-----
2024-05-28 11:50 amSSE 5 6----29.94- 59.0-----
2024-05-28 11:40 amSSE 4 7----29.94- 59.0-----
2024-05-28 11:30 amESE 6 7----29.94- 59.7-----
2024-05-28 11:20 am SE 6 7----29.94- 59.4-----
2024-05-28 11:10 amESE 4 5----29.94- 62.4-----
2024-05-28 11:00 am E 2 5----29.94+0.01 61.2-----
2024-05-28 10:50 am W 4 7----29.94- 64.9-----
2024-05-28 10:40 am NW 5 7----29.94- 64.8-----
2024-05-28 10:30 am NW 5 6----29.93- 64.2-----
2024-05-28 10:20 am W 5 8----29.93- 64.4-----
2024-05-28 10:10 amWNW 3 7----29.94- 63.7-----
2024-05-28 10:00 am W 4 7----29.94+0.01 63.7-----
2024-05-28 09:50 am W 4 7----29.93- 63.3-----